Location: Ariel
(45.9570°N, 122.5700°W)
Time: 17:21:51
(UTC-07:00)

Vanguard 3 - Pass Details

Date: 28 August 2019
Orbit: 508 x 3263 km, 33.4° (Epoch: 20 September)

Event Time Altitude Azimuth Distance (km) Brightness Sun altitude
Rises 19:08:53 0° 258° (WSW) 4,850 12.8 7.3°
Reaches altitude 10° 19:13:21 10° 247° (WSW) 3,345 11.5 6.5°
Maximum altitude 19:19:21 24° 197° (SSW) 1,827 9.1 5.4°
Drops below altitude 10° 19:23:29 10° 143° (SE) 2,219 9.0 4.7°
Sets 19:25:49 0° 128° (SE) 2,925 9.5 4.3°
